TimeEDT,TemperatureF,Dew PointF,Humidity,Sea Level PressureIn,VisibilityMPH,Wind Direction,Wind SpeedMPH,Gust SpeedMPH,PrecipitationIn,Events,Conditions,WindDirDegrees,DateUTC
12:53 AM,42.1,42.1,100,30.09,10.0,Calm,Calm,-,N/A,,Clear,0,2013-09-23 04:53:00
1:53 AM,41.0,41.0,100,30.10,10.0,Calm,Calm,-,N/A,,Clear,0,2013-09-23 05:53:00
2:53 AM,43.0,43.0,100,30.11,10.0,Calm,Calm,-,N/A,,Overcast,0,2013-09-23 06:53:00
3:53 AM,44.1,44.1,100,30.10,10.0,Calm,Calm,-,N/A,,Overcast,0,2013-09-23 07:53:00
4:53 AM,44.1,43.0,96,30.10,10.0,Calm,Calm,-,N/A,,Overcast,0,2013-09-23 08:53:00
5:53 AM,44.1,42.1,93,30.11,10.0,Calm,Calm,-,N/A,,Overcast,0,2013-09-23 09:53:00
6:53 AM,43.0,42.1,97,30.13,10.0,Calm,Calm,-,N/A,,Mostly Cloudy,0,2013-09-23 10:53:00
7:53 AM,43.0,42.1,97,30.15,10.0,Calm,Calm,-,N/A,,Overcast,0,2013-09-23 11:53:00
8:53 AM,46.0,44.1,93,30.15,10.0,East,5.8,-,N/A,,Clear,80,2013-09-23 12:53:00
9:53 AM,51.1,46.0,83,30.15,10.0,ESE,6.9,-,N/A,,Clear,110,2013-09-23 13:53:00
10:53 AM,55.9,46.9,72,30.15,10.0,ESE,8.1,-,N/A,,Clear,110,2013-09-23 14:53:00
11:53 AM,60.1,46.0,60,30.14,10.0,ESE,9.2,-,N/A,,Clear,120,2013-09-23 15:53:00
12:53 PM,62.1,46.0,56,30.14,10.0,South,6.9,-,N/A,,Clear,170,2013-09-23 16:53:00
1:53 PM,64.0,46.0,52,30.13,10.0,Variable,6.9,-,N/A,,Clear,0,2013-09-23 17:53:00
2:53 PM,66.0,46.0,48,30.11,10.0,East,8.1,-,N/A,,Clear,100,2013-09-23 18:53:00
3:53 PM,66.9,46.9,49,30.09,10.0,Calm,Calm,-,N/A,,Clear,0,2013-09-23 19:53:00
4:53 PM,68.0,46.9,47,30.08,10.0,ESE,6.9,-,N/A,,Clear,120,2013-09-23 20:53:00
5:53 PM,66.9,46.9,49,30.07,10.0,SE,10.4,-,N/A,,Clear,130,2013-09-23 21:53:00
6:53 PM,64.0,46.9,54,30.07,10.0,ESE,8.1,-,N/A,,Clear,110,2013-09-23 22:53:00
7:53 PM,55.9,48.0,75,30.09,10.0,East,4.6,-,N/A,,Clear,80,2013-09-23 23:53:00
8:53 PM,55.0,46.9,74,30.09,10.0,East,5.8,-,N/A,,Clear,90,2013-09-24 00:53:00
9:53 PM,53.1,46.9,80,30.09,10.0,East,5.8,-,N/A,,Clear,90,2013-09-24 01:53:00
10:53 PM,50.0,46.0,86,30.09,10.0,East,4.6,-,N/A,,Clear,90,2013-09-24 02:53:00
11:53 PM,50.0,46.0,86,30.10,10.0,East,3.5,-,N/A,,Clear,100,2013-09-24 03:53:00